567  
ASUS41 KRLX 022310  
RWRRLX  
REGIONAL WEATHER ROUNDUP  
NATIONAL WEATHER SERVICE CHARLESTON WV  
600 PM EST FRI DEC 02 2022  
 
NOTE: "FAIR" INDICATES FEW OR NO CLOUDS BELOW 12,000 FEET WITH NO  
SIGNIFICANT WEATHER AND/OR S TO VISIBILITY
.  
 
WVZ003-030000-  
NORTHERN PANHANDLE OF WEST VIRGINIA  
 
CITY SKY/WX TMP DP RH WIND PRES REMARKS
 
WHEELING PTCLDY 52 16 24 S9 30.15S  

 
 
WVZ009-030000-  
NORTHWEST WEST VIRGINIA  
 
CITY SKY/WX TMP DP RH WIND PRES REMARKS
 
PARKERSBURG MOCLDY 53 16 23 SE5 30.16F  

 
 
WVZ006-030000-  
WESTERN WEST VIRGINIA  
 
CITY SKY/WX TMP DP RH WIND PRES REMARKS
 
HUNTINGTON MOCLDY 56 21 25 S5 30.17S  
POINT PLEASANT MOCLDY 46 27 47 CALM 30.18F  

 
 
WVZ015-030000-  
WEST CENTRAL WEST VIRGINIA  
 
CITY SKY/WX TMP DP RH WIND PRES REMARKS
 
CHARLESTON MOCLDY 53 23 31 SE3 30.18F  

 
 
WVZ509-031-039-030000-  
NORTH CENTRAL WEST VIRGINIA  
 
CITY SKY/WX TMP DP RH WIND PRES REMARKS
 
MORGANTOWN MOCLDY 55 16 21 S3 30.19F  
CLARKSBURG CLOUDY 59 11 15 CALM 30.18F  
BUCKHANNON N/A 54 12 19 S3 30.20R  

 
 
WVZ515-516-025-034-042-507-030000-  
SOUTHERN WEST VIRGINIA  
 
CITY SKY/WX TMP DP RH WIND PRES REMARKS
 
BECKLEY PTCLDY 48 20 32 SE15 30.25F  
LOGAN MOCLDY 57 12 17 S9G15 30.21R  
PINEVILLE NOT AVBL  
BLUEFIELD PTCLDY 48 17 29 SE9G20 30.27F  
LEWISBURG MOCLDY 48 19 32 CALM 30.32R  

 
 
WVZ525-526-030000-  
NORTHERN MOUNTAINS OF WEST VIRGINIA  
 
CITY SKY/WX TMP DP RH WIND PRES REMARKS
 
ELKINS MOCLDY 54 15 21 S5 30.22F  

 
 
WVZ502-504-052-030000-  
EASTERN PANHANDLE OF WEST VIRGINIA  
 
CITY SKY/WX TMP DP RH WIND PRES REMARKS
 
PETERSBURG PTCLDY 41 28 60 CALM 30.34R  
CUMBERLAND MOCLDY 42 22 43 NW3 30.37F  
MARTINSBURG PTCLDY 43 21 41 E3 30.36S  

 
 
OHZ075-083-KYZ101-030000-  
SOUTHEAST OHIO/NORTHEAST KENTUCKY  
 
CITY SKY/WX TMP DP RH WIND PRES REMARKS
 
ATHENS MOCLDY 50 22 32 CALM 30.15F  
JACKSON NOT AVBL  
ASHLAND MOCLDY 52 29 41 E3 30.18S  

 
 
 
CLICK HERE TO GO TO PREVIOUS BULLETINS.

The Nexlab WV Page
The Nexlab OH Page
The Nexlab KY Page
The Nexlab VA Page Main Text Page